Cloud_Cover
5 0 0 0 4 2 0 18 77 71 100 100 95 100 100 100 88 100 100 100 100 100 100 100 100 100 100 100 100 100 100 100 100 100 100 100 100 100 100 100 100 100 100
5 0 0 0 0 2 36 72 100 100 100 100 100 100 100 100 100 100 100 100 100 100 100 100 100 100 100 100 100 100 100 100 100 100 100 100 100 100 100 100 100 100 100
41 0 0 0 0 29 84 93 100 100 100 100 100 100 100 100 100 100 100 100 100 100 100 100 100 100 100 100 100 100 100 100 100 100 100 100 100 100 100 100 100 100 100
62 2 0 0 23 100 100 100 100 100 100 100 100 100 100 100 100 100 97 100 100 100 100 100 100 100 100 100 100 100 100 100 100 100 100 79 100 100 100 100 100 100 100
86 5 0 70 100 100 100 100 100 100 100 100 100 100 100 100 100 100 100 100 100 100 100 100 100 100 100 100 100 100 100 100 100 100 100 100 100 100 100 100 100 100 100
100 12 10 100 100 100 100 100 100 100 100 100 100 100 100 100 100 100 100 100 100 100 100 100 100 100 100 100 100 100 100 100 100 100 98 84 98 100 100 100 100 100 100
100 52 78 100 100 100 100 100 100 100 100 100 100 100 100 100 100 100 96 100 100 100 100 100 100 100 100 100 100 100 100 100 100 100 100 100 77 48 78 76 99 100 100
100 78 87 100 100 100 100 100 100 100 100 100 100 100 100 100 100 100 100 100 100 100 100 100 100 100 100 100 100 100 100 100 100 80 89 100 100 71 97 100 99 100 100
100 100 93 90 91 100 100 100 100 100 100 100 100 100 100 100 100 100 100 100 100 100 100 100 100 100 100 100 100 100 99 100 100 100 100 100 97 99 100 100 100 100 100
100 100 100 100 72 100 100 100 100 100 100 100 100 100 100 100 100 100 100 100 100 100 100 100 100 100 100 100 100 91 100 100 98 100 100 100 100 100 100 100 100 100 100
100 100 100 100 100 100 100 100 100 100 100 100 100 100 100 100 100 100 100 100 100 100 100 100 100 100 100 100 100 100 83 100 100 100 100 100 100 100 100 90 50 69 100
100 100 100 100 100 100 100 100 100 100 100 100 100 100 100 100 100 100 100 100 100 100 100 100 100 100 100 100 100 100 100 100 100 100 100 100 100 95 84 27 45 38 52
100 100 100 100 100 100 100 100 100 100 100 100 100 100 100 100 100 100 100 100 100 100 99 14 17 44 48 93 74 98 100 100 100 78 90 94 95 84 80 27 5 5 62
100 100 100 100 100 100 100 100 100 100 100 100 100 100 91 100 100 100 100 82 91 77 58 14 15 22 10 74 69 11 6 14 7 30 98 98 98 70 67 71 68 86 28
100 100 100 100 100 100 100 100 100 100 100 100 76 50 48 75 94 69 68 68 28 23 17 19 33 10 31 56 65 68 54 65 97 97 67 77 70 52 87 64 73 31 45
100 100 100 100 100 100 100 100 100 100 100 99 100 83 85 46 38 46 39 31 51 37 43 27 83 67 84 94 97 99 88 96 100 51 56 49 46 36 97 29 5 33 44
100 100 100 100 100 100 100 100 100 97 100 100 100 34 100 99 68 89 43 50 77 100 100 98 98 94 100 100 99 81 92 100 66 54 74 74 83 100 15 87 40 5 12
100 100 100 100 100 100 100 100 100 100 98 99 86 100 97 86 100 100 98 99 80 38 98 100 100 100 100 100 99 99 99 66 80 62 78 100 100 100 100 87 7 5 10
100 100 100 100 100 100 100 100 100 100 100 100 100 100 100 100 98 44 80 66 80 80 63 35 78 100 100 100 100 100 83 100 97 100 100 100 98 97 100 97 21 5 7
100 100 100 100 100 100 100 100 100 100 100 100 100 100 100 100 100 100 96 100 100 100 100 100 100 100 100 100 100 100 100 100 100 100 100 98 48 100 100 71 5 14 57
100 100 100 100 100 100 100 100 100 100 100 100 100 100 100 100 100 100 100 100 100 100 100 100 100 100 100 96 100 100 100 100 100 100 94 100 66 43 100 94 29 5 5
100 100 100 100 100 100 100 100 100 100 100 100 100 100 100 100 100 100 94 100 100 100 100 100 100 100 100 100 100 100 100 100 100 100 43 65 26 79 79 29 35 74 5
100 100 100 100 100 100 100 100 100 100 100 100 100 100 100 100 100 100 100 100 100 100 100 100 100 100 99 100 100 100 100 100 100 98 100 85 91 37 45 79 53 5 5
100 100 100 100 100 100 100 100 100 100 100 100 100 100 100 100 100 100 100 100 100 100 100 100 100 100 98 82 100 100 100 100 100 100 100 62 46 18 18 62 31 5 5
100 100 100 100 100 100 100 100 100 100 100 100 100 100 100 100 100 100 100 100 100 100 100 100 100 100 99 100 100 100 100 100 100 100 42 29 12 16 8 44 33 5 9
100 100 100 100 100 100 100 100 100 100 100 100 100 100 100 100 100 100 100 100 100 100 100 100 100 100 100 100 100 100 100 100 97 96 100 100 98 48 89 97 86 75 76